Date String (YYYY-MM-DD hh:mm:ss) UTC,Instrument flags,Ambient pressure (hPa),Sample flow (lpm),Bypass flow (lpm),Sample temperature (°C),Ambient temperature (°C),ASC tube jacket temperature (°C),LED temperature (°C),Box temperature (°C),Sample RH (%),Span deviation,Mass concentration (μg/m³),Mass concentration (μg/m³),Mass concentration (μg/m³)
DateTimeUTC,F1_M11,P_M11,Q1_M11,Q2_M11,T1_M11,T2_M11,T3_M11,T4_M11,T5_M11,U1_M11,ZSPAN_M11,X2_M11,X0_M11,X1_M11
2022-06-16 09:00:00,,0829.1,5.00,0.00,30.1,29.0,00.0,39.0,32.0,11.1,0000.0,0003.69,0008.41,0002.59
2022-06-16 09:01:00,,0829.1,5.01,0.00,30.1,29.0,00.0,39.0,32.0,11.2,0000.0,0003.74,0008.73,0002.60
2022-06-16 09:02:00,,0828.6,4.99,0.00,30.1,29.0,00.0,39.0,32.0,11.3,0000.0,0003.80,0010.18,0002.61
2022-06-16 09:03:00,,0828.8,5.00,0.00,30.1,29.0,00.0,39.0,32.0,11.4,0000.0,0003.84,0010.38,0002.62
2022-06-16 09:04:00,,0828.7,5.00,0.00,30.1,29.0,00.0,39.0,32.0,11.5,0000.0,0003.89,0010.59,0002.66
2022-06-16 09:05:00,,0828.7,5.01,0.00,30.1,29.0,00.0,39.0,32.0,11.5,0000.0,0003.92,0010.71,0002.69
2022-06-16 09:06:00,,0829.0,5.00,0.00,30.1,29.0,00.0,39.0,32.0,11.5,0000.0,0003.92,0010.50,0002.70
2022-06-16 09:07:00,,0828.7,4.99,0.00,30.1,29.0,00.0,39.0,32.0,11.6,0000.0,0003.92,0010.13,0002.71
2022-06-16 09:08:00,,0828.7,4.99,0.00,30.1,29.0,00.0,39.0,32.0,11.6,0000.8,0003.92,0010.43,0002.73
2022-06-16 09:09:00,,0829.0,5.01,0.00,30.1,29.0,00.0,39.0,32.0,11.7,0000.2,0003.91,0010.83,0002.74
2022-06-16 09:10:00,,0828.8,5.00,0.00,30.1,29.0,00.0,39.0,32.0,11.7,0000.0,0003.88,0010.77,0002.73
2022-06-16 09:11:00,,0828.7,4.99,0.00,30.1,29.0,00.0,39.0,32.0,11.8,0000.0,0003.88,0010.58,0002.75
2022-06-16 09:12:00,,0828.7,4.99,0.00,30.1,29.0,00.0,39.0,32.0,11.9,0000.0,0003.86,0010.54,0002.76
2022-06-16 09:13:00,,0828.7,5.01,0.00,30.1,29.0,00.0,39.0,32.0,11.9,0000.0,0003.84,0009.09,0002.79
2022-06-16 09:14:00,,0828.7,4.99,0.00,30.1,29.0,00.0,39.0,32.0,12.0,0000.0,0003.84,0009.05,0002.79
2022-06-16 09:15:00,,0828.7,5.00,0.00,30.1,29.0,00.0,39.0,32.0,12.0,0000.0,0003.86,0009.17,0002.78
2022-06-16 09:16:00,,0828.7,5.00,0.00,30.1,29.0,00.0,39.0,32.0,12.1,0000.0,0003.86,0009.16,0002.79
2022-06-16 09:17:00,,0828.7,5.00,0.00,30.1,29.0,00.0,39.0,32.0,12.3,0000.0,0003.92,0009.88,0002.81
2022-06-16 09:18:00,,0828.7,5.00,0.00,30.1,29.0,00.0,39.0,32.0,12.3,0000.0,0003.93,0010.04,0002.82
2022-06-16 09:19:00,,0828.7,5.01,0.00,30.1,29.1,00.0,39.0,32.0,12.4,0000.0,0003.95,0009.98,0002.82
2022-06-16 09:20:00,,0828.7,4.99,0.00,30.1,29.0,00.0,39.0,32.0,12.5,0000.0,0004.04,0009.97,0002.84
2022-06-16 09:21:00,,0828.7,5.00,0.00,30.2,29.0,00.0,39.0,32.0,12.5,0000.0,0004.10,0010.12,0002.88
2022-06-16 09:22:00,,0828.8,5.00,0.00,30.2,29.1,00.0,39.1,32.0,12.5,0000.0,0004.12,0010.15,0002.89
2022-06-16 09:23:00,,0828.9,5.01,0.00,30.2,29.1,00.0,39.1,32.0,12.5,0000.0,0004.15,0010.64,0002.88
2022-06-16 09:24:00,,0829.1,5.01,0.00,30.2,29.1,00.0,39.1,32.0,12.4,0000.0,0004.13,0010.69,0002.86
2022-06-16 09:25:00,,0829.2,4.98,0.00,30.2,29.1,00.0,39.1,32.0,12.4,0000.0,0004.09,0010.47,0002.87
2022-06-16 09:26:00,,0829.1,5.01,0.00,30.2,29.1,00.0,39.1,32.0,12.3,0000.0,0004.08,0010.20,0002.87
2022-06-16 09:27:00,,0829.1,5.00,0.00,30.2,29.1,00.0,39.1,32.0,12.3,0000.0,0004.07,0010.18,0002.86
2022-06-16 09:28:00,,0828.7,4.99,0.00,30.2,29.1,00.0,39.1,32.0,12.4,0000.0,0004.03,0009.42,0002.85
2022-06-16 09:29:00,,0828.7,5.00,0.00,30.2,29.1,00.0,39.1,32.0,12.4,0000.0,0004.03,0009.31,0002.85
2022-06-16 09:30:00,,0828.7,5.01,0.00,30.2,29.1,00.0,39.1,32.0,12.4,0000.0,0004.06,0009.24,0002.85
2022-06-16 09:31:00,,0828.7,5.00,0.00,30.2,29.1,00.0,39.1,32.0,12.5,0000.0,0004.03,0009.18,0002.84
2022-06-16 09:32:00,,0828.7,5.00,0.00,30.2,29.1,00.0,39.1,32.0,12.5,0000.0,0003.98,0009.08,0002.82
2022-06-16 09:33:00,,0828.7,4.99,0.00,30.2,29.1,00.0,39.1,32.0,12.4,0000.0,0004.00,0009.15,0002.83
2022-06-16 09:34:00,,0828.7,4.99,0.00,30.2,29.1,00.0,39.1,32.0,12.4,0000.0,0003.98,0008.73,0002.83
2022-06-16 09:35:00,,0828.7,5.00,0.00,30.2,29.1,00.0,39.1,32.1,12.3,0000.0,0004.02,0008.68,0002.85
2022-06-16 09:36:00,,0829.1,5.02,0.00,30.2,29.1,00.0,39.1,32.0,12.3,0000.0,0004.03,0008.66,0002.86
2022-06-16 09:37:00,,0829.2,4.99,0.00,30.2,29.1,00.0,39.1,32.0,12.3,0000.0,0004.03,0008.93,0002.86
2022-06-16 09:38:00,,0829.2,4.99,0.00,30.2,29.1,00.0,39.1,32.0,12.3,0000.0,0004.02,0009.06,0002.86
2022-06-16 09:39:00,,0829.1,5.00,0.00,30.2,29.1,00.0,39.1,32.1,12.4,0000.0,0004.03,0009.17,0002.86
2022-06-16 09:40:00,,0829.2,5.00,0.00,30.2,29.1,00.0,39.1,32.1,12.5,0000.0,0004.00,0009.08,0002.86
2022-06-16 09:41:00,,0829.3,5.00,0.00,30.2,29.1,00.0,39.1,32.1,12.6,0000.0,0003.97,0008.88,0002.86
2022-06-16 09:42:00,,0829.2,5.00,0.00,30.2,29.1,00.0,39.1,32.0,12.6,0000.0,0003.95,0009.04,0002.87
2022-06-16 09:43:00,,0829.2,5.00,0.00,30.2,29.1,00.0,39.1,32.0,12.6,0000.0,0004.02,0009.31,0002.89
2022-06-16 09:44:00,,0829.2,4.99,0.00,30.2,29.1,00.0,39.1,32.0,12.7,0000.0,0004.03,0009.88,0002.90
2022-06-16 09:45:00,,0829.2,5.00,0.00,30.2,29.1,00.0,39.1,32.1,12.8,0000.0,0004.06,0010.12,0002.90
2022-06-16 09:46:00,,0829.2,5.02,0.00,30.2,29.1,00.0,39.1,32.1,12.8,0000.0,0004.07,0010.18,0002.90
2022-06-16 09:47:00,,0829.3,5.01,0.00,30.2,29.1,00.0,39.1,32.1,12.9,0000.0,0004.13,0010.43,0002.92
2022-06-16 09:48:00,,0829.2,4.99,0.00,30.2,29.1,00.0,39.1,32.1,13.0,0000.0,0004.13,0010.08,0002.93
2022-06-16 09:49:00,,0829.3,5.00,0.00,30.2,29.1,00.0,39.1,32.1,13.0,0000.0,0004.16,0010.02,0002.95
2022-06-16 09:50:00,,0828.7,4.99,0.00,30.2,29.1,00.0,39.1,32.1,13.1,0000.0,0004.21,0010.07,0002.97
2022-06-16 09:51:00,,0828.7,5.02,0.00,30.2,29.2,00.0,39.1,32.1,13.2,0000.0,0004.27,0010.26,0002.98
2022-06-16 09:52:00,,0828.6,4.99,0.00,30.2,29.2,00.0,39.1,32.1,13.3,0000.0,0004.26,0010.24,0002.98
2022-06-16 09:53:00,,0828.7,5.00,0.00,30.2,29.2,00.0,39.1,32.1,13.3,0000.0,0004.30,0010.04,0003.01
2022-06-16 09:54:00,,0828.7,5.00,0.00,30.2,29.2,00.0,39.1,32.1,13.4,0000.0,0004.31,0009.87,0003.02
2022-06-16 09:55:00,,0828.7,5.00,0.00,30.2,29.2,00.0,39.1,32.1,13.4,0000.0,0004.29,0009.34,0003.05
2022-06-16 09:56:00,,0828.7,4.99,0.00,30.3,29.2,00.0,39.1,32.1,13.5,0000.0,0004.37,0009.20,0003.07
2022-06-16 09:57:00,,0828.7,4.99,0.00,30.3,29.2,00.0,39.2,32.1,13.7,0000.0,0004.43,0010.06,0003.10
2022-06-16 09:58:00,,0828.7,5.01,0.00,30.3,29.2,00.0,39.2,32.1,13.7,0000.0,0004.44,0009.99,0003.10
2022-06-16 09:59:00,,0828.7,5.00,0.00,30.3,29.2,00.0,39.2,32.1,13.8,0000.0,0004.49,0010.05,0003.10
